This demonstration page uses our WeatherBlox Daily Observations layout. Learn more.

Left ArrowRight Arrow

Hourly Observations for October 1, 2018

Temp ( °F °C ) Dew Point ( °F °C ) Humidity (%) Winds ( mph kmh ) Pressure ( in mb ) Visibility ( mi km ) Precip ( " mm )
12:02 am 00:02 Cloudy with Mist and Fog 50 10 48 8.9 93 93 NE 10 17 30.21 1023 3 4.82802 0 0
12:24 am 00:24 Cloudy with Mist and Fog 50 10 48 8.9 93 93 ENE 9 15 30.18 1022 2.5 4.02335 0 0
12:54 am 00:54 Cloudy with Mist and Fog 50 10 48 8.9 93 93 ENE 7 11 30.16 1021 2.5 4.02335 0 0
1:04 am 01:04 Cloudy with Mist and Fog 50 10 49 9.4 96 96 ENE 7 11 30.18 1022 2.5 4.02335 0 0
1:54 am 01:54 Cloudy with Mist and Fog 50 10 48 8.9 93 93 ENE 8 13 30.15 1021 2.5 4.02335 0 0
2:54 am 02:54 Cloudy with Mist and Fog 50 10 49 9.4 96 96 ENE 6 9 30.14 1021 2 3.21868 0 0
3:32 am 03:32 Cloudy with Mist and Fog 50 10 49 9.4 96 96 NE 7 11 30.15 1021 1.75 2.816345 0 0
3:49 am 03:49 Cloudy with Mist and Fog 50 10 48 9 94 94 NE 7 11 30.15 1021 2 3.21868 0 0
3:54 am 03:54 Cloudy with Mist and Fog 50 10 49 9.4 96 96 NE 5 7 30.13 1020 2 3.21868 0 0
4:54 am 04:54 Cloudy with Mist and Fog 50 10 49 9.4 96 96 NE 5 7 30.12 1020 2 3.21868 0 0
5:54 am 05:54 Cloudy with Mist and Fog 50 10 49 9.4 96 96 ENE 6 9 30.11 1020 2.5 4.02335 0 0
6:54 am 06:54 Cloudy with Mist and Fog 50 10 49 9.4 96 96 ENE 6 9 30.1 1019 2.5 4.02335 0 0
7:04 am 07:04 Cloudy with Nearby Thunderstorms 50 10 50 10 100 100 ENE 5 7 30.12 1020 3 4.82802 0 0
7:13 am 07:13 Cloudy with Light Rain 50 10 50 10 100 100 ENE 6 9 30.12 1020 2.5 4.02335 0.01 0.254
7:20 am 07:20 Cloudy with Nearby Thunderstorms 50 10 49 9.4 96 96 ENE 6 9 30.12 1020 2.5 4.02335 0.01 0.254
7:24 am 07:24 Cloudy with Light Thunderstorms 50 10 50 10 100 100 NE 6 9 30.12 1020 3 4.82802 0.01 0.254
7:35 am 07:35 Cloudy with Thunderstorms 50 10 50 10 100 100 Calm 30.12 1020 2.5 4.02335 0.06 1.524
7:39 am 07:39 Cloudy with Light Rain 50 10 50 10 100 100 NNE 3 6 30.12 1020 4 6.43736 0.06 1.524
7:54 am 07:54 Cloudy with Light Rain 50 10 49 9.4 96 96 N 5 7 30.11 1020 3 4.82802 0.06 1.524
8:06 am 08:06 Cloudy with Light Rain 50 10 49 9.4 96 96 NE 7 11 30.12 1020 1.75 2.816345 0 0.0254
8:29 am 08:29 Cloudy with Light Rain 51 10.6 49 9.4 92 92 NE 6 9 30.12 1020 2 3.21868 0.02 0.508
8:42 am 08:42 Cloudy with Light Rain 51 10.6 50 10 96 96 ENE 5 7 30.12 1020 3 4.82802 0.02 0.508
8:50 am 08:50 Cloudy with Light Rain 52 11 50 10 94 94 N 5 7 30.09 1019 2.5 4.02335 0.03 0.762
8:54 am 08:54 Cloudy with Light Rain 51 10.6 50 10 96 96 N 6 9 30.09 1019 3 4.82802 0.03 0.762
9:02 am 09:02 Cloudy with Light Rain 51 10.6 50 10 96 96 N 5 7 30.12 1020 5 8.0467 0.01 0.254
9:27 am 09:27 Cloudy with Light Rain 51 10.6 50 10 96 96 N 7 11 30.12 1020 3 4.82802 0.01 0.254
9:54 am 09:54 Cloudy with Light Rain 51 10.6 50 10 96 96 NNW 10 17 30.12 1020 2.5 4.02335 0.02 0.508
10:01 am 10:01 Cloudy with Light Rain 51 10.6 49 9.4 92 92 N 10 17 30.15 1021 3 4.82802 0 0.0254
10:25 am 10:25 Cloudy with Light Rain 51 10.6 49 9.4 92 92 NNW 12 19 30.15 1021 2.5 4.02335 0 0.0254
10:35 am 10:35 Cloudy with Light Rain 51 10.6 49 9.4 92 92 N 12 19 30.15 1021 5 8.0467 0 0.0254
10:38 am 10:38 Cloudy with Light Rain 51 10.6 49 9.4 92 92 N 10 17 30.15 1021 3 4.82802 0 0.0254
10:46 am 10:46 Cloudy with Light Rain 51 10.6 49 9.4 92 92 N 9 15 30.15 1021 3 4.82802 0.01 0.254
10:54 am 10:54 Cloudy with Light Rain 51 10.6 50 10 96 96 N 9 15 30.13 1020 3 4.82802 0.01 0.254
11:03 am 11:03 Cloudy with Light Rain 52 11.1 50 10 93 93 N 9 15 30.15 1021 6 9.65604 0 0.0254
11:54 am 11:54 Cloudy with Light Rain 52 11.1 50 10 93 93 N 9 15 30.12 1020 4 6.43736 0 0.0254
12:49 pm 12:49 Cloudy 54 12 50 10 88 88 NNE 5 7 30.09 1019 10 16.0934 0 0.0254
12:54 pm 12:54 Cloudy 54 12.2 50 10 87 87 NE 3 6 30.1 1019 10 16.0934 0 0.0254
1:23 pm 13:23 Cloudy 55 12.8 50 10 83 83 N 5 7 30.09 1019 10 16.0934 0 0
1:45 pm 13:45 Cloudy 56 13.3 50 10 81 81 NNW 5 7 30.09 1019 10 16.0934 0 0
1:54 pm 13:54 Cloudy 56 13.3 51 10.6 84 84 N 5 7 30.1 1019 10 16.0934 0 0
2:54 pm 14:54 Cloudy 57 13.9 51 10.6 81 81 N 9 15 30.11 1020 10 16.0934 0 0
3:54 pm 15:54 Cloudy 57 13.9 51 10.6 81 81 NNW 14 22 30.1 1019 10 16.0934 0 0
4:54 pm 16:54 Cloudy 56 13.3 50 10 81 81 NNW 9 15 30.11 1020 10 16.0934 0 0
5:54 pm 17:54 Cloudy 56 13.3 50 10 81 81 NNW 8 13 30.1 1019 10 16.0934 0 0
6:05 pm 18:05 Cloudy 56 13.3 50 10 81 81 N 8 13 30.09 1019 10 16.0934 0 0
6:54 pm 18:54 Cloudy 56 13.3 50 10 81 81 N 7 11 30.11 1020 10 16.0934 0 0
7:54 pm 19:54 Cloudy 55 12.8 50 10 83 83 ENE 5 7 30.12 1020 10 16.0934 0 0
8:54 pm 20:54 Cloudy 55 12.8 50 10 83 83 NE 6 9 30.13 1020 10 16.0934 0 0
9:23 pm 21:23 Cloudy 54 12.2 50 10 87 87 NNE 10 17 30.15 1021 10 16.0934 0 0
9:54 pm 21:54 Cloudy 54 12.2 49 9.4 83 83 NNE 9 15 30.15 1021 10 16.0934 0 0
10:54 pm 22:54 Cloudy 53 11.7 50 10 89 89 NNE 8 13 30.15 1021 10 16.0934 0 0
11:54 pm 23:54 Cloudy 53 11.7 48 8.9 83 83 ENE 5 7 30.14 1021 10 16.0934 0 0

Powered by AerisWeather